Location: Fort Worth, Tx
(32.7431°N, 97.3695°W)
Time: 11:01:34
(UTC-04:00)

A-11 Canister half - Pass Details

Date: 15 August 2024
Orbit: 1524 x 1684 km, 47.3° (Epoch: 13 September)

Event Time Altitude Azimuth Distance (km) Brightness Sun altitude
Rises 21:35:06 0° 189° (S) 4,809 11.5 -5.1°
Reaches altitude 10° 21:38:52 10° 178° (S) 3,851 10.9 -5.8°
Maximum altitude 21:46:34 26° 126° (SE) 2,816 9.8 -7.4°
Drops below altitude 10° 21:54:23 10° 74° (ENE) 3,937 10.7 -8.9°
Sets 21:58:14 0° 63° (ENE) 4,936 11.3 -9.6°
